Phoenix-Mesa-Gateway Airport
KIWA : rendu visible

Aérodrome :











RETROUVEZ-NOUS SUR...

 
LOGIN :

S'inscrire | Disclaimer

   EN    FR    IT 

 









Légende :    VFR   VFR Marginal   IFR   IFR Intensif   IFR Très Intensif
Visi : 
Plafond : 
>= 8 km
>= 3000ft
5 à 8 km
1000 à 3000 ft
1500m à 5 km
500 à 1000 ft
800 à 1500m
200 à 500 ft
< 800m
< 200 ft
Symboles :   Orages  Brouillard  Fortes neiges  Fortes précipitations  Vent > 20 kt






- Altitude de l'aérodrome : 1382 ft


KIWA - Phoenix-Mesa-Gateway

DERNIER METAR :
  • 081750Z 17012KT 10SM SCT150 25/05 A2997

METARs EXPIRÉS :
  • 081650Z 16010KT 10SM SCT150 23/07 A2999
  • 081600Z 15006KT 10SM FEW200 21/05 A3000

TAF KIWA
Valide du 08 à 18h jusqu'au 09 à 18h UTC


081738Z 0818/0918 18012G18KT P6SM SCT090
FM082200 23019G27KT P6SM SCT080
FM090100 26020G28KT P6SM FEW040 BKN060
FM090500 27010KT P6SM VCSH FEW050 BKN070
FM091000 10006KT P6SM SCT060



MET'MAP, la Météo Aéronautique d'un coup d'oeil ! - Copyright ORBIFLY Décembre 2007 - Disclaimer

ORBIFLY MET'MAP TEAM :

Programmation & Développement : Alexandra Zaïnal
Sur une idée originale de : Baudouin d'Aumeries
Assistance à la programmation : Marc-Olivier Méhu
Soutien technique & logistique : Manuel Goepfert

Contact : metmap@orbifly.com




SOURCES & CREDITS :

   NOAA       Earth
Advisory